Regional Weather Roundup
Issued by NWS

Home | Current Version | Previous Version | Text Only | Print | Product List | Glossary On
Versions: 1 2 3 4 5 6 7 8 9 10 11 12 13 14 15 16 17 18 19 20 21 22 23 24 25 26 27 28 29 30 31 32 33 34 35 36 37 38 39 40 41 42 43 44 45 46 47 48 49 50
000
ASUS45 KABQ 201210
RWRNM
NEW MEXICO REGIONAL WEATHER ROUNDUP
NATIONAL WEATHER SERVICE ALBUQUERQUE NM
500 AM MST MON NOV 20 2017

NOTE: "FAIR" MEANS FEW OR NO CLOUDS BELOW 12,000 FEET AGL WITH NO
       SIGNIFICANT WEATHER OR OBSTRUCTIONS TO VISION.

      THIS PRODUCT IS RELEASED AS TWO VERSIONS.  ONE VERSION NEAR
      THE TOP OF THE HOUR CONTAINING PRELIMINARY DATA FROM ALBUQUERQUE
      AND OTHER STATIONS.  A FINAL VERSION WITH ADDITIONAL DATA IS
      ISSUED ABOUT 10 MINUTES AFTER THE HOUR.

NMZ501-503-504-510>518-201300-
NORTHWEST PLATEAU/NORTHCENTRAL MOUNTAINS

CITY           SKY/WX    TMP DP  RH WIND       PRES   REMARKS
FARMINGTON     FAIR      15   7  70 E7        30.20S WCI   5
6HR MIN TEMP:  15; 6HR MAX TEMP:  24;

LOS ALAMOS     FAIR      35   0  22 CALM      30.17R
SANTA FE       FAIR      25   7  46 N8        30.14S WCI  16
6HR MIN TEMP:  19; 6HR MAX TEMP:  29;

TAOS           FAIR      15   2  56 E3        30.20F
ANGEL FIRE     FAIR      29   2  31 S7        30.15S WCI  22

$$
NMZ402-403-502-505>509-201300-
WESTCENTRAL MOUNTAINS/SOUTHWEST MOUNTAINS

CITY           SKY/WX    TMP DP  RH WIND       PRES   REMARKS
GALLUP         FAIR      12   3  67 NE3       30.21S
6HR MIN TEMP:   8; 6HR MAX TEMP:  17;

GRANTS         FAIR      17   1  49 W7        30.21F WCI   7
SILVER CITY    FAIR      29  13  50 N9        30.15S WCI  20

$$
NMZ407-409-411-412-201300-
SOUTHERN DESERTS

CITY           SKY/WX    TMP DP  RH WIND       PRES   REMARKS
DEMING         FAIR      28  10  46 CALM      30.14S
6HR MIN TEMP:  28; 6HR MAX TEMP:  37;

LAS CRUCES     FAIR      31  15  51 NW7       30.14S WCI  24
HOLLOMAN AFB   FAIR      28  13  55 E8        30.15S WCI  19
ALAMOGORDO     FAIR      28  12  50 E5        30.14S WCI  23
T OR C         FAIR      35   6  29 N6        30.14R WCI  30
6HR MIN TEMP:  32; 6HR MAX TEMP:  41;


$$
NMZ519>523-201300-
CENTRAL VALLEYS/CENTRAL HIGHLANDS

CITY           SKY/WX    TMP DP  RH WIND       PRES   REMARKS
ALBUQUERQUE    FAIR      30   7  37 CALM      30.17S
6HR MIN TEMP:  28; 6HR MAX TEMP:  38;

MORIARTY ARPT  FAIR      14   2  57 NE3       30.15F
6HR MIN TEMP:  12; 6HR MAX TEMP:  19;

CLINES CORNERS FAIR      23   2  40 NW10      30.14R WCI  12
6HR MIN TEMP:  22; 6HR MAX TEMP:  31;

BELEN          FAIR      23   3  41 CALM      30.18R
6HR MIN TEMP:  21; 6HR MAX TEMP:  32;

SOCORRO        FAIR      30   4  33 NW8       30.18R WCI  22
6HR MIN TEMP:  27; 6HR MAX TEMP:  34;


$$
NMZ524>526-539-540-201300-
SOUTHCENTRAL MOUNTAINS

CITY           SKY/WX    TMP DP  RH WIND       PRES   REMARKS
RUIDOSO        FAIR      36   3  25 W6        30.15R WCI  31

$$
NMZ527>531-201300-
NORTHEAST HIGHLANDS/NORTHEAST PLAINS

CITY           SKY/WX    TMP DP  RH WIND       PRES   REMARKS
LAS VEGAS      FAIR      33  -9  16 E3        30.05S
6HR MIN TEMP:  26; 6HR MAX TEMP:  41;

RATON          FAIR      18   8  65 NE10      30.01R WCI   6
6HR MIN TEMP:  17; 6HR MAX TEMP:  28;

CLAYTON        FAIR      34   6  31 CALM      29.93R
6HR MIN TEMP:  31; 6HR MAX TEMP:  42;


$$
NMZ532>537-201300-
EASTCENTRAL PLAINS

CITY           SKY/WX    TMP DP  RH WIND       PRES   REMARKS
SANTA ROSA     FAIR      39   4  22 W7        30.00S WCI  34
TUCUMCARI      FAIR      30  14  51 W6        29.96S WCI  24
6HR MIN TEMP:  28; 6HR MAX TEMP:  44;

CANNON AFB     FAIR      33  19  56 W14       30.01F WCI  23
6HR MIN TEMP:  27; 6HR MAX TEMP:  36;

CLOVIS AIRPORT FAIR      30  20  66 W14       30.00F WCI  19

$$
NMZ028-029-538-201300-
SOUTHEAST PLAINS

CITY           SKY/WX    TMP DP  RH WIND       PRES   REMARKS
ROSWELL        FAIR      28  15  58 NW5       30.06S WCI  23
6HR MIN TEMP:  26; 6HR MAX TEMP:  35;

ARTESIA        FAIR      27  14  59 NW7       30.08S WCI  19
CARLSBAD       FAIR      30  25  81 N5        30.06R WCI  25
6HR MIN TEMP:  29; 6HR MAX TEMP:  39;

HOBBS          FAIR      28  21  74 W7        30.06S WCI  21


$$




USA.gov is the U.S. government's official web portal to all federal, state and local government web resources and services.